Find Kosmos-942

NORAD ID: 10288 Int'l Des: 1977-079 Owner: GUKOSR Country: SU operational
LEOCIRCULAR

現在のビュー

3D地球を読み込み中...

Kosmos-942について

説明を読み込み中...

次回通過

Passes for default location (London). Set your location on the main map for personalized predictions.

高度履歴

Loading altitude history...

軌道要素

1 10288U 77079D 26149.89950299 -.00000002 00000-0 95320-4 0 9998
2 10288 74.0254 326.8727 0044690 177.9430 253.0493 12.42258844194079
Epoch: May 29, 2026 • Age: 13 hours

現在のステータス

高度 1530.5 km
速度 7.09 km/s
衛星直下点 24.09°N, 77.57°W
打ち上げ日 Aug 24, 1977
運用期間 48.7 years
タイプ other

技術仕様

分類 Payload
質量 60.00 kg
乾燥質量 60.00 kg
総質量 60.00 kg
長さ 0.80 m
直径 0.80 m
スパン 0.80 m
形状 Poly
製造者 NPOPM
バスタイプ Strela-1 11F625
フェーズステータス In Orbit
所有者/国 GUKOSR/SU

Most Searched